GW2631 Weather Reports


time (UTC)temp
F
wind
direction
speed
knots
gust
knots
rain 1hr
in
rain 24hr
in
rain mn
in
humidity
%
barometer
mb
20260505071311 64 206 5.2 6.1 0.00 0.00 0.00 74 1007.1
20260505070810 64 208 6.1 6.1 0.00 0.00 0.00 73 1006.7
20260505070306 64 149 9.6 9.6 0.00 0.00 0.00 73 1006.9
20260505065801 64 191 13.0 15.6 0.00 0.00 0.00 73 1006.7
20260505065258 64 188 9.6 11.3 0.00 0.00 0.00 72 1006.6
20260505064755 65 192 13.0 14.8 0.00 0.00 0.00 72 1006.5
20260505064252 65 191 10.4 12.2 0.00 0.00 0.00 71 1006.4
20260505063750 65 169 10.4 12.2 0.00 0.00 0.00 71 1006.1
20260505063246 65 152 8.7 9.6 0.00 0.00 0.00 71 1006.0
20260505062743 65 196 12.2 17.4 0.00 0.00 0.00 72 1006.1
20260505062240 65 184 9.6 9.6 0.00 0.00 0.00 72 1006.0
20260505061737 65 162 8.7 8.7 0.00 0.00 0.00 72 1006.1
20260505061235 65 181 9.6 12.2 0.00 0.00 0.00 72 1006.1
20260505060732 65 151 12.2 15.6 0.00 0.00 0.00 72 1006.4
20260505060229 65 192 13.9 17.4 0.00 0.00 0.00 72 1006.4
20260505055724 65 141 7.8 8.7 0.00 0.00 0.00 72 1006.6
20260505055221 65 171 7.8 8.7 0.00 0.00 0.00 72 1006.6
20260505054718 65 185 9.6 9.6 0.00 0.00 0.00 72 1006.8
20260505054216 65 155 8.7 11.3 0.00 0.00 0.00 72 1006.9
20260505053714 65 170 8.7 9.6 0.00 0.00 0.00 72 1006.9
20260505053210 65 177 8.7 12.2 0.00 0.00 0.00 72 1006.9
20260505052708 65 162 8.7 9.6 0.00 0.00 0.00 72 1007.1
20260505052204 65 98 8.7 12.2 0.00 0.00 0.00 71 1007.2
20260505051701 65 178 11.3 12.2 0.00 0.00 0.00 71 1007.0
20260505051159 65 151 6.1 7.0 0.00 0.00 0.00 71 1007.4
20260505050657 65 141 7.8 8.7 0.00 0.00 0.00 71 1007.3
20260505050155 65 192 8.7 12.2 0.00 0.00 0.00 71 1007.3
20260505041625 66 174 7.8 8.7 0.00 0.00 0.00 69 1007.8
20260505041122 66 164 8.7 11.3 0.00 0.00 0.00 69 1007.9
20260505040619 66 184 8.7 11.3 0.00 0.00 0.00 69 1008.1
20260505040116 66 166 7.8 8.7 0.00 0.00 0.00 68 1008.1
20260505035613 66 187 6.1 7.8 0.00 0.00 0.00 68 1008.1
20260505035109 66 182 8.7 11.3 0.00 0.00 0.00 67 1008.2
20260505034606 67 166 9.6 9.6 0.00 0.00 0.00 67 1008.3
20260505034102 67 179 7.8 8.7 0.00 0.00 0.00 66 1008.1
20260505033559 67 148 7.0 9.6 0.00 0.00 0.00 66 1008.2
20260505033058 67 164 6.1 7.8 0.00 0.00 0.00 66 1008.4
20260505032555 67 184 7.0 8.7 0.00 0.00 0.00 66 1008.5
20260505032051 68 181 7.8 8.7 0.00 0.00 0.00 65 1008.3
20260505031549 68 170 6.1 7.8 0.00 0.00 0.00 64 1008.2
20260505031045 68 171 6.1 7.0 0.00 0.00 0.00 64 1008.1
20260505030542 68 134 10.4 17.4 0.00 0.00 0.00 63 1008.1
20260505030038 68 162 5.2 6.1 0.00 0.00 0.00 63 1008.1
20260505025534 68 176 8.7 9.6 0.00 0.00 0.00 63 1008.1
20260505025033 68 165 8.7 12.2 0.00 0.00 0.00 63 1007.7
20260505024530 68 165 7.0 8.7 0.00 0.00 0.00 63 1008.0
20260505024027 68 191 7.8 9.6 0.00 0.00 0.00 63 1008.0
20260505023524 69 161 9.6 13.0 0.00 0.00 0.00 62 1007.6
20260505023021 69 180 6.1 7.0 0.00 0.00 0.00 62 1007.7
20260505022519 69 137 7.8 8.7 0.00 0.00 0.00 62 1007.4
20260505022016 69 134 4.3 7.0 0.00 0.00 0.00 61 1007.5
20260505021512 69 141 5.2 7.0 0.00 0.00 0.00 61 1007.5
20260505021009 69 124 4.3 6.1 0.00 0.00 0.00 61 1007.4
20260505020503 69 185 8.7 11.3 0.00 0.00 0.00 61 1007.2
20260505020000 69 167 6.1 7.0 0.00 0.00 0.00 61 1007.2
20260505015458 70 138 6.1 7.8 0.00 0.00 0.00 61 1007.1
20260505014954 70 147 7.8 9.6 0.00 0.00 0.00 61 1007.1
20260505014452 70 122 5.2 7.0 0.00 0.00 0.00 60 1007.0
20260505013949 70 161 7.0 7.8 0.00 0.00 0.00 59 1007.1
20260505013446 70 165 4.3 5.2 0.00 0.00 0.00 60 1006.7
20260505012943 71 160 4.3 5.2 0.00 0.00 0.00 59 1006.8
20260505012441 71 136 6.1 9.6 0.00 0.00 0.00 58 1006.6
20260505011938 71 144 6.1 8.7 0.00 0.00 0.00 57 1006.5
20260505011433 72 159 4.3 5.2 0.00 0.00 0.00 57 1006.7
20260505010930 72 165 7.0 7.8 0.00 0.00 0.00 56 1007.0
20260505010426 72 169 5.2 6.1 0.00 0.00 0.00 56 1006.7
20260505005922 72 141 7.8 8.7 0.00 0.00 0.00 56 1006.9
20260505005419 73 179 6.1 7.8 0.00 0.00 0.00 55 1006.6
20260505004917 73 156 4.3 7.0 0.00 0.00 0.00 55 1006.7
20260505004413 73 171 7.8 9.6 0.00 0.00 0.00 54 1006.8
20260505003910 74 131 6.1 7.8 0.00 0.00 0.00 54 1006.8
20260505003407 74 179 8.7 9.6 0.00 0.00 0.00 54 1006.5
20260505002904 74 165 3.5 5.2 0.00 0.00 0.00 53 1006.6
20260505002400 75 187 11.3 17.4 0.00 0.00 0.00 52 1006.4
20260505001859 75 153 4.3 5.2 0.00 0.00 0.00 51 1006.2
20260505001355 75 213 6.1 7.0 0.00 0.00 0.00 50 1006.4
20260505000853 75 126 7.8 8.7 0.00 0.00 0.00 50 1006.4
20260505000351 76 149 9.6 12.2 0.00 0.00 0.00 49 1006.5
20260504235846 76 173 9.6 13.0 0.00 0.00 0.00 49 1006.5
20260504235344 76 184 6.1 7.0 0.00 0.00 0.00 50 1006.4
20260504234840 76 132 7.8 8.7 0.00 0.00 0.00 49 1006.4
20260504234338 76 165 6.1 7.8 0.00 0.00 0.00 48 1006.2
20260504233835 77 163 8.7 12.2 0.00 0.00 0.00 48 1006.1
20260504233330 77 160 10.4 13.9 0.00 0.00 0.00 48 1006.1
20260504232827 77 157 4.3 6.1 0.00 0.00 0.00 49 1006.2
20260504232324 77 179 11.3 14.8 0.00 0.00 0.00 47 1006.2
20260504231821 77 118 7.0 8.7 0.00 0.00 0.00 48 1006.2
20260504231318 77 148 7.8 8.7 0.00 0.00 0.00 49 1006.5
20260504230813 77 187 8.7 9.6 0.00 0.00 0.00 47 1006.2
20260504230312 77 160 9.6 13.9 0.00 0.00 0.00 47 1006.5
20260504225810 78 182 8.7 9.6 0.00 0.00 0.00 47 1006.4
20260504225306 78 163 6.1 7.8 0.00 0.00 0.00 48 1006.5
20260504224804 77 214 11.3 15.6 0.00 0.00 0.00 47 1006.2
20260504224301 77 191 9.6 12.2 0.00 0.00 0.00 47 1006.4
20260504223757 77 168 13.9 15.6 0.00 0.00 0.00 48 1006.4
20260504223253 78 175 9.6 11.3 0.00 0.00 0.00 48 1006.7
20260504222750 78 177 11.3 13.9 0.00 0.00 0.00 47 1006.6
20260504222246 78 160 8.7 11.3 0.00 0.00 0.00 48 1006.7
20260504221744 78 195 10.4 12.2 0.00 0.00 0.00 48 1006.6
20260504221241 78 179 7.8 11.3 0.00 0.00 0.00 48 1006.7
20260504220737 78 147 6.1 7.8 0.00 0.00 0.00 47 1006.9
20260504220235 78 209 13.9 15.6 0.00 0.00 0.00 47 1006.7
20260504215732 78 118 12.2 14.8 0.00 0.00 0.00 47 1006.6
20260504215229 78 134 8.7 11.3 0.00 0.00 0.00 47 1006.8
20260504214724 78 179 12.2 17.4 0.00 0.00 0.00 47 1006.8
20260504214216 78 157 8.7 9.6 0.00 0.00 0.00 48 1006.8
20260504213712 79 120 13.9 19.1 0.00 0.00 0.00 46 1006.8
20260504213209 78 188 11.3 13.9 0.00 0.00 0.00 46 1006.7
20260504212706 79 135 9.6 12.2 0.00 0.00 0.00 48 1006.9
20260504212203 78 160 14.8 17.4 0.00 0.00 0.00 46 1006.9
20260504211700 79 172 12.2 14.8 0.00 0.00 0.00 47 1006.9
20260504211156 78 190 14.8 19.1 0.00 0.00 0.00 46 1007.1
20260504210654 79 179 9.6 9.6 0.00 0.00 0.00 46 1007.0
20260504210150 78 119 5.2 6.1 0.00 0.00 0.00 46 1007.0
20260504205648 79 171 8.7 11.3 0.00 0.00 0.00 45 1007.0
20260504205144 78 192 11.3 13.9 0.00 0.00 0.00 45 1007.2
20260504204643 79 166 7.8 8.7 0.00 0.00 0.00 47 1007.3
20260504204142 79 151 12.2 19.1 0.00 0.00 0.00 45 1007.3
20260504203640 79 136 7.8 11.3 0.00 0.00 0.00 47 1007.3
20260504203137 78 190 10.4 12.2 0.00 0.00 0.00 46 1007.4
20260504202632 79 128 10.4 18.2 0.00 0.00 0.00 45 1007.5
20260504202129 79 180 12.2 15.6 0.00 0.00 0.00 45 1007.4
20260504201625 79 183 12.2 13.9 0.00 0.00 0.00 46 1007.5
20260504201124 78 177 10.4 13.9 0.00 0.00 0.00 45 1007.6
20260504200620 79 114 9.6 13.0 0.00 0.00 0.00 45 1007.5
20260504200117 80 195 10.4 13.0 0.00 0.00 0.00 46 1007.8
20260504195613 79 141 12.2 13.9 0.00 0.00 0.00 44 1007.5
20260504195109 80 113 6.1 7.0 0.00 0.00 0.00 45 1007.9
20260504194606 79 152 13.0 15.6 0.00 0.00 0.00 44 1007.6
20260504194102 78 144 17.4 21.7 0.00 0.00 0.00 45 1007.5
20260504193558 78 179 10.4 13.9 0.00 0.00 0.00 46 1007.8
20260504193057 78 184 13.9 17.4 0.00 0.00 0.00 46 1007.7
20260504192555 78 104 10.4 12.2 0.00 0.00 0.00 46 1007.7
20260504192052 78 148 10.4 13.0 0.00 0.00 0.00 47 1008.1
20260504191550 78 139 8.7 9.6 0.00 0.00 0.00 46 1008.2
20260504191046 78 166 14.8 19.1 0.00 0.00 0.00 46 1008.3
20260504190543 78 170 10.4 13.0 0.00 0.00 0.00 46 1008.1
20260504190039 79 189 11.3 13.0 0.00 0.00 0.00 48 1008.2
20260504185536 78 148 11.3 13.0 0.00 0.00 0.00 45 1008.1
20260504185032 78 143 13.9 15.6 0.00 0.00 0.00 48 1008.2
20260504184528 78 175 12.2 13.9 0.00 0.00 0.00 46 1008.2
20260504184023 78 135 15.6 19.1 0.00 0.00 0.00 47 1008.3
20260504183521 78 197 7.8 12.2 0.00 0.00 0.00 46 1008.2
20260504183019 78 186 7.8 8.7 0.00 0.00 0.00 47 1008.2
20260504182515 77 43 9.6 13.0 0.00 0.00 0.00 47 1008.4
20260504182013 78 162 15.6 20.0 0.00 0.00 0.00 47 1008.2
20260504181510 77 149 9.6 14.8 0.00 0.00 0.00 48 1008.3
20260504181009 78 104 9.6 13.0 0.00 0.00 0.00 46 1008.4
20260504180507 77 172 8.7 9.6 0.00 0.00 0.00 49 1008.5
20260504180005 77 209 8.7 9.6 0.00 0.00 0.00 50 1008.4
20260504175502 76 173 7.0 8.7 0.00 0.00 0.00 49 1008.4
20260504174959 77 187 9.6 13.0 0.00 0.00 0.00 47 1008.5
20260504174456 77 145 10.4 12.2 0.00 0.00 0.00 48 1008.3
20260504173954 76 174 14.8 18.2 0.00 0.00 0.00 48 1008.4
20260504173450 76 222 9.6 12.2 0.00 0.00 0.00 48 1008.5
20260504172947 75 142 13.0 14.8 0.00 0.00 0.00 48 1008.6
20260504172443 76 176 11.3 13.9 0.00 0.00 0.00 49 1008.6
20260504171940 76 132 7.0 7.8 0.00 0.00 0.00 48 1008.9
20260504171437 76 140 6.1 7.8 0.00 0.00 0.00 49 1008.7
20260504170934 75 144 11.3 14.8 0.00 0.00 0.00 50 1008.7
20260504170430 75 192 7.8 9.6 0.00 0.00 0.00 51 1008.6
20260504160349 73 119 9.6 12.2 0.00 0.00 0.00 55 1009.8
20260504150814 69 187 10.4 12.2 0.00 0.00 0.00 58 1009.9
20260504150311 68 192 15.6 19.1 0.00 0.00 0.00 58 1010.2
20260504141241 65 188 8.7 11.3 0.00 0.00 0.00 67 1010.5
20260504140737 64 143 7.8 9.6 0.00 0.00 0.00 67 1010.8
20260504140233 64 177 7.8 8.7 0.00 0.00 0.00 67 1010.4
20260504130702 60 167 7.0 7.8 0.00 0.00 0.00 74 1010.8
20260504130157 60 194 4.3 6.1 0.00 0.00 0.00 75 1010.9
20260504120122 57 141 5.2 7.0 0.00 0.00 0.00 76 1010.7
20260504110549 55 197 4.3 5.2 0.00 0.00 0.00 82 1010.7
20260504100511 56 194 3.5 4.3 0.00 0.00 0.00 79 1011.1
20260504081904 56 200 3.5 4.3 0.00 0.00 0.00 82 1011.3
20260504081401 56 184 3.5 4.3 0.00 0.00 0.00 82 1011.4
20260504080856 56 201 4.3 4.3 0.00 0.00 0.00 81 1011.2
20260504080354 56 193 3.5 4.3 0.00 0.00 0.00 81 1011.3